Tracking 27428 objects as of 31-May-2023
HD Live streaming from Space Station
objects crossing your sky now

THOR ABLESTAR DEB

Track THOR ABLESTAR DEB now!
10-day predictions


NORAD ID: 357
Int'l Code: 1961-015DX
Perigee: 866.5 km
Apogee: 898.1 km
Inclination: 66.8 °
Period: 102.5 minutes
Semi major axis: 7253 km
RCS: 0.059 m2 (small)
Launch date: June 29, 1961
Source: United States (US)
Launch site: AIR FORCE EASTERN TEST RANGE (AFETR)

Note: This is SATELLITE DEBRIS
Your satellite tracking list
Your tracking list is empty




NASA's NSSDC Master Catalog

Two Line Element Set (TLE):
1   357U 61015DX  23151.16559219  .00000814  00000-0  54964-3 0  9992
2   357  66.8080 159.5758 0021794 274.3702  85.4894 14.05391483139620
Source of the keplerian elements: AFSPC